Flag for Germany Weather past 2 weeks in Lübeck, Schleswig-Holstein, Germany

Now
34 °F

Sunny.


Feels Like: 34 °F
Forecast: 38 / 60 °F
Wind: 2 mph from North

Location: Luebeck-Blankensee


UV Index: 3 (Moderate)

Visibility: 10 mi


Pressure: 30.45 "Hg

Humidity: 93%

Dew point: 32 °F

Location of LübeckLocation

Historic Weather in Lübeck

°F

Lübeck temperature yesterday

Maximum temperature yesterday: 54 °F (at 3:50 PM)
Minimum temperature yesterday: 37 °F (at 6:50 AM)
Average temperature yesterday: 48 °F

Past Weeks' High & Low Weather Summary

 TemperatureHumidityPressure
High68 °F (Apr 7, 2:20 PM)100% (Apr 1, 6:20 AM)30.42 "Hg (Apr 1, 6:20 AM)
Low32 °F (Apr 12, 6:50 AM)44% (Apr 12, 4:20 PM)29.65 "Hg (Apr 8, 6:50 AM)
Average50 °F78%29.95 "Hg
* Reported Apr 1 6:20 AM — Apr 16 6:50 AM, Lübeck, Weather by CustomWeather, © 2014

Note: Actual official high and low records may vary slightly from our data, if they occured in-between our weather recording intervals... More about our weather records

Advertising

Historic Weather Conditions — Data for Previous 24 hours

 ConditionsComfort  
Time TempWeatherWind HumidityBarometerVisibility
6:50 AM
Apr 16
32 °FClear.2 mph93%30.42 "Hg10 mi
9:50 PM
Apr 15
43 °FClear.9 mph61%30.30 "Hg10 mi
9:20 PM45 °FClear.10 mph57%30.30 "Hg10 mi
8:50 PM45 °FSunny.12 mph57%30.30 "Hg10 mi
8:20 PM46 °FSunny.12 mph53%30.27 "Hg10 mi
7:50 PM48 °FSunny.14 mph58%30.24 "Hg10 mi
7:20 PM50 °FSunny.15 mph47%30.24 "Hg10 mi
6:50 PM50 °FSunny.13 mph47%30.21 "Hg10 mi
6:20 PM50 °FSunny.16 mph47%30.21 "Hg10 mi
5:50 PM52 °FPassing clouds.17 mph47%30.21 "HgN/A
5:20 PM52 °FPassing clouds.14 mph47%30.21 "HgN/A
4:50 PM52 °FScattered clouds.16 mph47%30.18 "HgN/A
4:20 PM52 °FScattered clouds.18 mph47%30.18 "HgN/A
3:50 PM54 °FScattered clouds.8 mph51%30.18 "HgN/A
3:20 PM52 °FPassing clouds.9 mph47%30.18 "HgN/A
2:50 PM52 °FPassing clouds.8 mph47%30.18 "HgN/A
2:20 PM52 °FScattered clouds.9 mph47%30.15 "HgN/A
1:50 PM52 °FScattered clouds.10 mph50%30.15 "HgN/A
1:20 PM50 °FScattered clouds.8 mph50%30.15 "HgN/A
12:50 PM50 °FScattered clouds.8 mph54%30.15 "HgN/A
12:20 PM50 °FScattered clouds.7 mph62%30.12 "HgN/A
11:50 AM48 °FScattered clouds.8 mph62%30.12 "HgN/A
11:20 AM46 °FScattered clouds.8 mph66%30.12 "HgN/A
10:50 AM46 °FScattered clouds.8 mph71%30.12 "HgN/A
10:20 AM45 °FScattered clouds.7 mph71%30.12 "HgN/A
9:50 AM45 °FScattered clouds.8 mph71%30.09 "HgN/A
9:20 AM43 °FPassing clouds.8 mph76%30.09 "HgN/A
8:50 AM43 °FPassing clouds.8 mph76%30.07 "HgN/A
8:20 AM41 °FPassing clouds.7 mph81%30.07 "HgN/A
Weather by CustomWeather, © 2014

See weather overview